| time (UTC) | temp F | wind direction | speed MPH | gust MPH | rain 1hr in | rain 24hr in | rain mn in | humidity % | barometer mb |
| 20260902101109 | 75 | 0 | 3.0 | 9.0 | 0.00 | 0.00 | 0.00 | 67 | 1018.9 |
| 20260902100842 | 75 | 0 | 3.0 | 8.0 | 0.00 | 0.00 | 0.00 | 67 | 1018.9 |
| 20260902100104 | 75 | 0 | 3.0 | 9.0 | 0.00 | 0.00 | 0.00 | 68 | 1018.9 |
| 20260902095559 | 75 | 0 | 4.0 | 9.0 | 0.00 | 0.00 | 0.00 | 68 | 1019.0 |
| 20260902095056 | 75 | 0 | 3.0 | 6.0 | 0.00 | 0.00 | 0.00 | 68 | 1019.0 |
| 20260902094557 | 75 | 0 | 3.0 | 6.0 | 0.00 | 0.00 | 0.00 | 68 | 1019.0 |
| 20260902094054 | 74 | 0 | 2.0 | 6.0 | 0.00 | 0.00 | 0.00 | 69 | 1019.0 |
| 20260902093555 | 74 | 0 | 2.0 | 5.0 | 0.00 | 0.00 | 0.00 | 69 | 1019.1 |
| 20260902093328 | 74 | 0 | 3.0 | 5.0 | 0.00 | 0.00 | 0.00 | 69 | 1019.0 |
| 20260902092553 | 74 | 0 | 3.0 | 5.0 | 0.00 | 0.00 | 0.00 | 69 | 1019.0 |
| 20260902092322 | 74 | 0 | 3.0 | 8.0 | 0.00 | 0.00 | 0.00 | 69 | 1019.1 |
| 20260902091551 | 74 | 0 | 3.0 | 8.0 | 0.00 | 0.00 | 0.00 | 69 | 1019.0 |
| 20260902091051 | 74 | 0 | 3.0 | 6.0 | 0.00 | 0.00 | 0.00 | 69 | 1019.0 |
| 20260902090549 | 74 | 0 | 3.0 | 6.0 | 0.00 | 0.00 | 0.00 | 69 | 1019.0 |
| 20260902090050 | 74 | 0 | 3.0 | 6.0 | 0.00 | 0.00 | 0.00 | 70 | 1019.0 |
| 20260902085542 | 74 | 0 | 3.0 | 6.0 | 0.00 | 0.00 | 0.00 | 69 | 1019.0 |
| 20260902085043 | 74 | 0 | 2.0 | 5.0 | 0.00 | 0.00 | 0.00 | 70 | 1019.0 |
| 20260902084542 | 74 | 182 | 3.0 | 5.0 | 0.00 | 0.00 | 0.00 | 69 | 1019.0 |
| 20260902084043 | 74 | 0 | 3.0 | 5.0 | 0.00 | 0.00 | 0.00 | 69 | 1019.0 |
| 20260902083541 | 74 | 0 | 2.0 | 5.0 | 0.00 | 0.00 | 0.00 | 70 | 1019.0 |
| 20260902083041 | 74 | 0 | 1.0 | 3.0 | 0.00 | 0.00 | 0.00 | 70 | 1018.9 |
| 20260902082538 | 74 | 0 | 1.0 | 4.0 | 0.00 | 0.00 | 0.00 | 70 | 1018.9 |
| 20260902082038 | 74 | 0 | 1.0 | 4.0 | 0.00 | 0.00 | 0.00 | 70 | 1018.8 |
| 20260902081539 | 74 | 0 | 1.0 | 3.0 | 0.00 | 0.00 | 0.00 | 70 | 1018.7 |
| 20260902081037 | 74 | 0 | 1.0 | 4.0 | 0.00 | 0.00 | 0.00 | 70 | 1018.7 |
| 20260902080806 | 74 | 0 | 1.0 | 4.0 | 0.00 | 0.00 | 0.00 | 70 | 1018.6 |
| 20260902080035 | 74 | 0 | 1.0 | 3.0 | 0.00 | 0.00 | 0.00 | 70 | 1018.6 |
| 20260902075531 | 74 | 0 | 2.0 | 5.0 | 0.00 | 0.00 | 0.00 | 70 | 1018.8 |
| 20260902075029 | 74 | 0 | 2.0 | 5.0 | 0.00 | 0.00 | 0.00 | 70 | 1018.7 |
| 20260902074758 | 74 | 0 | 2.0 | 4.0 | 0.00 | 0.00 | 0.00 | 70 | 1018.7 |
| 20260902074027 | 74 | 0 | 2.0 | 4.0 | 0.00 | 0.00 | 0.00 | 70 | 1018.7 |
| 20260902073525 | 74 | 0 | 2.0 | 5.0 | 0.00 | 0.00 | 0.00 | 70 | 1018.7 |
| 20260902073023 | 74 | 0 | 2.0 | 5.0 | 0.00 | 0.00 | 0.00 | 70 | 1018.7 |
| 20260902072750 | 74 | 0 | 2.0 | 4.0 | 0.00 | 0.00 | 0.00 | 70 | 1018.7 |
| 20260902072019 | 74 | 0 | 2.0 | 4.0 | 0.00 | 0.00 | 0.00 | 70 | 1018.6 |
| 20260902071519 | 74 | 0 | 2.0 | 3.0 | 0.00 | 0.00 | 0.00 | 70 | 1018.7 |
| 20260902071019 | 74 | 0 | 2.0 | 4.0 | 0.00 | 0.00 | 0.00 | 70 | 1018.7 |
| 20260902070748 | 74 | 0 | 1.0 | 4.0 | 0.00 | 0.00 | 0.00 | 70 | 1018.7 |
| 20260902070019 | 74 | 0 | 0.0 | 4.0 | 0.00 | 0.00 | 0.00 | 70 | 1018.7 |
| 20260902065515 | 74 | 0 | 1.0 | 3.0 | 0.00 | 0.00 | 0.00 | 70 | 1018.7 |
| 20260902065013 | 74 | 161 | 2.0 | 4.0 | 0.00 | 0.00 | 0.00 | 70 | 1018.6 |
| 20260902064513 | 73 | 0 | 2.0 | 4.0 | 0.00 | 0.00 | 0.00 | 70 | 1018.7 |
| 20260902064013 | 74 | 0 | 2.0 | 4.0 | 0.00 | 0.00 | 0.00 | 70 | 1018.6 |
| 20260902063511 | 74 | 0 | 1.0 | 4.0 | 0.00 | 0.00 | 0.00 | 70 | 1018.7 |
| 20260902063011 | 74 | 161 | 1.0 | 4.0 | 0.00 | 0.00 | 0.00 | 70 | 1018.7 |
| 20260902062738 | 74 | 159 | 1.0 | 4.0 | 0.00 | 0.00 | 0.00 | 69 | 1018.6 |
| 20260902062238 | 74 | 0 | 1.0 | 4.0 | 0.00 | 0.00 | 0.00 | 69 | 1018.7 |
| 20260902061744 | 74 | 0 | 0.0 | 1.0 | 0.00 | 0.00 | 0.00 | 69 | 1018.6 |
| 20260902061506 | 74 | 0 | 0.0 | 2.0 | 0.00 | 0.00 | 0.00 | 69 | 1018.6 |
| 20260902060506 | 74 | 165 | 0.0 | 1.0 | 0.00 | 0.00 | 0.00 | 69 | 1018.7 |
| 20260902060005 | 74 | 0 | 1.0 | 3.0 | 0.00 | 0.00 | 0.00 | 69 | 1018.6 |
| 20260902055501 | 74 | 165 | 1.0 | 3.0 | 0.00 | 0.00 | 0.00 | 69 | 1018.6 |
| 20260902055001 | 74 | 0 | 1.0 | 3.0 | 0.00 | 0.00 | 0.00 | 69 | 1018.7 |
| 20260902054459 | 74 | 184 | 1.0 | 2.0 | 0.00 | 0.00 | 0.00 | 69 | 1018.7 |
| 20260902053959 | 74 | 0 | 1.0 | 2.0 | 0.00 | 0.00 | 0.00 | 69 | 1018.7 |
| 20260902053459 | 74 | 0 | 1.0 | 2.0 | 0.00 | 0.00 | 0.00 | 69 | 1018.6 |
| 20260902053002 | 74 | 184 | 1.0 | 2.0 | 0.00 | 0.00 | 0.00 | 69 | 1018.7 |
| 20260902052454 | 74 | 0 | 1.0 | 3.0 | 0.00 | 0.00 | 0.00 | 69 | 1018.6 |
| 20260902051955 | 74 | 184 | 0.0 | 3.0 | 0.00 | 0.00 | 0.00 | 69 | 1018.7 |
| 20260902051453 | 74 | 188 | 0.0 | 0.0 | 0.00 | 0.00 | 0.00 | 69 | 1018.6 |
| 20260902050951 | 74 | 0 | 0.0 | 1.0 | 0.00 | 0.00 | 0.00 | 69 | 1018.5 |
| 20260902050719 | 74 | 188 | 0.0 | 2.0 | 0.00 | 0.00 | 0.00 | 69 | 1018.5 |
| 20260902045949 | 74 | 0 | 0.0 | 2.0 | 0.00 | 0.00 | 0.00 | 69 | 1018.5 |
| 20260902045447 | 74 | 0 | 0.0 | 0.0 | 0.00 | 0.00 | 0.00 | 69 | 1018.5 |
| 20260902044945 | 74 | 0 | 0.0 | 0.0 | 0.00 | 0.00 | 0.00 | 69 | 1018.6 |
| 20260902044446 | 74 | 0 | 0.0 | 0.0 | 0.00 | 0.00 | 0.00 | 69 | 1018.6 |
| 20260902044216 | 74 | 201 | 0.0 | 0.0 | 0.00 | 0.00 | 0.00 | 69 | 1018.4 |
| 20260902043449 | 74 | 201 | 0.0 | 2.0 | 0.00 | 0.00 | 0.00 | 69 | 1018.3 |
| 20260902043443 | 74 | 200 | 0.0 | 1.0 | 0.00 | 0.00 | 0.00 | 69 | 1018.4 |
| 20260902042439 | 74 | 0 | 0.0 | 2.0 | 0.00 | 0.00 | 0.00 | 69 | 1018.2 |
| 20260902041939 | 74 | 0 | 0.0 | 2.0 | 0.00 | 0.00 | 0.00 | 70 | 1018.2 |
| 20260902041439 | 74 | 0 | 0.0 | 0.0 | 0.00 | 0.00 | 0.00 | 70 | 1018.2 |
| 20260902040939 | 74 | 0 | 0.0 | 1.0 | 0.00 | 0.00 | 0.00 | 70 | 1018.2 |
| 20260902040707 | 74 | 0 | 1.0 | 2.0 | 0.00 | 0.00 | 0.00 | 70 | 1018.1 |
| 20260902035939 | 74 | 0 | 0.0 | 2.0 | 0.00 | 0.00 | 0.00 | 70 | 1018.1 |
| 20260902035431 | 74 | 0 | 0.0 | 0.0 | 0.00 | 0.00 | 0.00 | 70 | 1017.9 |
| 20260902035201 | 74 | 0 | 0.0 | 0.0 | 0.00 | 0.00 | 0.00 | 70 | 1017.9 |
| 20260902035048 | 74 | 0 | 0.0 | 0.0 | 0.00 | 0.00 | 0.00 | 70 | 1017.9 |
| 20260902034201 | 74 | 0 | 0.0 | 0.0 | 0.00 | 0.00 | 0.00 | 70 | 1017.9 |
| 20260902033925 | 74 | 0 | 0.0 | 0.0 | 0.00 | 0.00 | 0.00 | 70 | 1017.9 |
| 20260902032919 | 74 | 0 | 0.0 | 0.0 | 0.00 | 0.00 | 0.00 | 71 | 1017.9 |
| 20260902032417 | 74 | 0 | 0.0 | 0.0 | 0.00 | 0.00 | 0.00 | 71 | 1017.9 |
| 20260902031915 | 74 | 0 | 0.0 | 0.0 | 0.00 | 0.00 | 0.00 | 71 | 1017.9 |
| 20260902031413 | 74 | 0 | 0.0 | 0.0 | 0.00 | 0.00 | 0.00 | 71 | 1017.9 |
| 20260902030915 | 74 | 0 | 0.0 | 0.0 | 0.00 | 0.00 | 0.00 | 71 | 1017.9 |
| 20260902030637 | 74 | 0 | 0.0 | 0.0 | 0.00 | 0.00 | 0.00 | 71 | 1018.1 |
| 20260902025906 | 74 | 0 | 0.0 | 0.0 | 0.00 | 0.00 | 0.00 | 71 | 1018.2 |
| 20260902025406 | 74 | 0 | 0.0 | 0.0 | 0.00 | 0.00 | 0.00 | 71 | 1018.2 |
| 20260902025137 | 74 | 0 | 0.0 | 0.0 | 0.00 | 0.00 | 0.00 | 71 | 1018.2 |
| 20260902024407 | 74 | 0 | 0.0 | 1.0 | 0.00 | 0.00 | 0.00 | 72 | 1018.3 |
| 20260902024137 | 74 | 0 | 0.0 | 2.0 | 0.00 | 0.00 | 0.00 | 72 | 1018.2 |
| 20260902023402 | 75 | 0 | 1.0 | 2.0 | 0.00 | 0.00 | 0.00 | 72 | 1018.3 |
| 20260902022902 | 75 | 0 | 1.0 | 2.0 | 0.00 | 0.00 | 0.00 | 72 | 1018.3 |
| 20260902022404 | 75 | 0 | 0.0 | 2.0 | 0.00 | 0.00 | 0.00 | 73 | 1018.2 |
| 20260902021902 | 75 | 0 | 0.0 | 0.0 | 0.00 | 0.00 | 0.00 | 73 | 1018.3 |
| 20260902021401 | 75 | 0 | 0.0 | 0.0 | 0.00 | 0.00 | 0.00 | 72 | 1018.3 |
| 20260902021131 | 76 | 0 | 0.0 | 0.0 | 0.00 | 0.00 | 0.00 | 72 | 1018.2 |
| 20260902020626 | 76 | 0 | 0.0 | 0.0 | 0.00 | 0.00 | 0.00 | 72 | 1017.9 |
| 20260902020125 | 76 | 0 | 0.0 | 0.0 | 0.00 | 0.00 | 0.00 | 72 | 1018.1 |
| 20260902015353 | 76 | 0 | 0.0 | 0.0 | 0.00 | 0.00 | 0.00 | 72 | 1017.9 |
| 20260902014853 | 76 | 0 | 0.0 | 0.0 | 0.00 | 0.00 | 0.00 | 72 | 1018.1 |
| 20260902014351 | 76 | 0 | 0.0 | 0.0 | 0.00 | 0.00 | 0.00 | 72 | 1018.1 |
| 20260902013853 | 77 | 0 | 0.0 | 0.0 | 0.00 | 0.00 | 0.00 | 72 | 1018.1 |
| 20260902013617 | 77 | 0 | 0.0 | 0.0 | 0.00 | 0.00 | 0.00 | 71 | 1017.9 |
| 20260902012843 | 77 | 0 | 0.0 | 0.0 | 0.00 | 0.00 | 0.00 | 71 | 1018.1 |
| 20260902012612 | 77 | 0 | 0.0 | 0.0 | 0.00 | 0.00 | 0.00 | 71 | 1018.1 |
| 20260902011839 | 77 | 0 | 0.0 | 0.0 | 0.00 | 0.00 | 0.00 | 71 | 1018.1 |
| 20260902011341 | 77 | 0 | 0.0 | 0.0 | 0.00 | 0.00 | 0.00 | 71 | 1017.9 |
| 20260902011106 | 78 | 0 | 0.0 | 0.0 | 0.00 | 0.00 | 0.00 | 70 | 1017.9 |
| 20260902010333 | 78 | 0 | 0.0 | 2.0 | 0.00 | 0.00 | 0.00 | 70 | 1017.8 |
| 20260902005835 | 78 | 0 | 1.0 | 3.0 | 0.00 | 0.00 | 0.00 | 70 | 1017.9 |
| 20260902005334 | 78 | 0 | 2.0 | 3.0 | 0.00 | 0.00 | 0.00 | 70 | 1017.8 |
| 20260902004832 | 78 | 0 | 1.0 | 3.0 | 0.00 | 0.00 | 0.00 | 70 | 1017.8 |
| 20260902004332 | 78 | 0 | 2.0 | 3.0 | 0.00 | 0.00 | 0.00 | 70 | 1017.8 |
| 20260902003831 | 78 | 0 | 1.0 | 4.0 | 0.00 | 0.00 | 0.00 | 69 | 1017.8 |
| 20260902003327 | 78 | 0 | 1.0 | 4.0 | 0.00 | 0.00 | 0.00 | 69 | 1017.9 |
| 20260902003059 | 78 | 0 | 2.0 | 4.0 | 0.00 | 0.00 | 0.00 | 69 | 1018.2 |
| 20260902002327 | 78 | 0 | 2.0 | 4.0 | 0.00 | 0.00 | 0.00 | 69 | 1018.1 |
| 20260902002102 | 79 | 0 | 2.0 | 4.0 | 0.00 | 0.00 | 0.00 | 69 | 1017.9 |
| 20260902001328 | 79 | 0 | 2.0 | 4.0 | 0.00 | 0.00 | 0.00 | 69 | 1018.1 |
| 20260902000829 | 79 | 0 | 3.0 | 5.0 | 0.00 | 0.00 | 0.00 | 68 | 1018.1 |
| 20260902000329 | 80 | 0 | 3.0 | 5.0 | 0.00 | 0.00 | 0.00 | 68 | 1018.2 |
| 20260901235327 | 80 | 0 | 2.0 | 4.0 | 0.00 | 0.00 | 0.00 | 67 | 1018.2 |
| 20260901234827 | 80 | 0 | 2.0 | 4.0 | 0.00 | 0.00 | 0.00 | 67 | 1018.1 |
| 20260901234325 | 81 | 0 | 2.0 | 5.0 | 0.00 | 0.00 | 0.00 | 67 | 1018.2 |
| 20260901233825 | 81 | 0 | 3.0 | 6.0 | 0.00 | 0.00 | 0.00 | 66 | 1018.1 |
| 20260901233325 | 81 | 0 | 3.0 | 6.0 | 0.00 | 0.00 | 0.00 | 66 | 1017.9 |
| 20260901232819 | 82 | 0 | 3.0 | 6.0 | 0.00 | 0.00 | 0.00 | 65 | 1017.9 |
| 20260901232314 | 82 | 0 | 3.0 | 5.0 | 0.00 | 0.00 | 0.00 | 65 | 1018.1 |
| 20260901231814 | 82 | 0 | 3.0 | 8.0 | 0.00 | 0.00 | 0.00 | 64 | 1018.1 |
| 20260901231313 | 83 | 0 | 3.0 | 8.0 | 0.00 | 0.00 | 0.00 | 64 | 1018.1 |
| 20260901230814 | 83 | 0 | 2.0 | 6.0 | 0.00 | 0.00 | 0.00 | 63 | 1018.2 |
| 20260901230315 | 83 | 0 | 3.0 | 6.0 | 0.00 | 0.00 | 0.00 | 63 | 1018.1 |
| 20260901225814 | 84 | 0 | 3.0 | 6.0 | 0.00 | 0.00 | 0.00 | 63 | 1017.9 |
| 20260901225309 | 84 | 215 | 3.0 | 6.0 | 0.00 | 0.00 | 0.00 | 62 | 1018.1 |
| 20260901224810 | 84 | 0 | 3.0 | 6.0 | 0.00 | 0.00 | 0.00 | 61 | 1018.1 |
| 20260901224313 | 85 | 0 | 3.0 | 6.0 | 0.00 | 0.00 | 0.00 | 61 | 1018.2 |
| 20260901223810 | 85 | 221 | 3.0 | 11.0 | 0.00 | 0.00 | 0.00 | 61 | 1018.1 |
| 20260901223310 | 85 | 0 | 3.0 | 11.0 | 0.00 | 0.00 | 0.00 | 61 | 1018.1 |
| 20260901222811 | 85 | 0 | 3.0 | 9.0 | 0.00 | 0.00 | 0.00 | 61 | 1017.9 |
| 20260901222306 | 85 | 0 | 4.0 | 9.0 | 0.00 | 0.00 | 0.00 | 61 | 1017.9 |
| 20260901221805 | 85 | 18 | 4.0 | 8.0 | 0.00 | 0.00 | 0.00 | 61 | 1017.9 |
| 20260901221306 | 85 | 0 | 3.0 | 9.0 | 0.00 | 0.00 | 0.00 | 61 | 1017.9 |
| 20260901220805 | 85 | 0 | 3.0 | 9.0 | 0.00 | 0.00 | 0.00 | 62 | 1017.9 |
| 20260901220305 | 85 | 0 | 3.0 | 8.0 | 0.00 | 0.00 | 0.00 | 61 | 1017.8 |
| 20260901215807 | 85 | 0 | 4.0 | 9.0 | 0.00 | 0.00 | 0.00 | 61 | 1017.8 |
| 20260901215301 | 86 | 0 | 4.0 | 10.0 | 0.00 | 0.00 | 0.00 | 60 | 1017.9 |
| 20260901214802 | 86 | 0 | 4.0 | 10.0 | 0.00 | 0.00 | 0.00 | 60 | 1017.8 |
| 20260901214303 | 86 | 0 | 4.0 | 12.0 | 0.00 | 0.00 | 0.00 | 61 | 1017.6 |
| 20260901213801 | 86 | 0 | 5.0 | 12.0 | 0.00 | 0.00 | 0.00 | 61 | 1017.5 |
| 20260901213303 | 86 | 166 | 5.0 | 11.0 | 0.00 | 0.00 | 0.00 | 60 | 1017.4 |
| 20260901213034 | 87 | 0 | 4.0 | 11.0 | 0.00 | 0.00 | 0.00 | 60 | 1017.5 |
| 20260901212306 | 87 | 207 | 4.0 | 10.0 | 0.00 | 0.00 | 0.00 | 60 | 1017.4 |
| 20260901211803 | 87 | 0 | 4.0 | 10.0 | 0.00 | 0.00 | 0.00 | 60 | 1017.5 |
| 20260901211532 | 87 | 0 | 5.0 | 9.0 | 0.00 | 0.00 | 0.00 | 61 | 1017.6 |
| 20260901211034 | 87 | 0 | 4.0 | 10.0 | 0.00 | 0.00 | 0.00 | 60 | 1017.5 |
| 20260901210259 | 87 | 0 | 4.0 | 10.0 | 0.00 | 0.00 | 0.00 | 61 | 1017.7 |
| 20260901205759 | 87 | 309 | 5.0 | 11.0 | 0.00 | 0.00 | 0.00 | 61 | 1017.5 |
| 20260901205524 | 86 | 0 | 6.0 | 14.0 | 0.00 | 0.00 | 0.00 | 63 | 1017.6 |
| 20260901204754 | 86 | 0 | 5.0 | 14.0 | 0.00 | 0.00 | 0.00 | 62 | 1017.6 |
| 20260901204254 | 87 | 0 | 4.0 | 10.0 | 0.00 | 0.00 | 0.00 | 64 | 1017.5 |
| 20260901203747 | 86 | 223 | 5.0 | 11.0 | 0.00 | 0.00 | 0.00 | 64 | 1017.5 |
| 20260901203246 | 86 | 0 | 5.0 | 12.0 | 0.00 | 0.00 | 0.00 | 64 | 1017.6 |
| 20260901202745 | 86 | 0 | 6.0 | 12.0 | 0.00 | 0.00 | 0.00 | 63 | 1017.5 |
| 20260901202245 | 86 | 0 | 6.0 | 11.0 | 0.00 | 0.00 | 0.00 | 62 | 1017.7 |
| 20260901201744 | 86 | 0 | 5.0 | 11.0 | 0.00 | 0.00 | 0.00 | 64 | 1017.7 |
| 20260901201242 | 86 | 0 | 4.0 | 11.0 | 0.00 | 0.00 | 0.00 | 64 | 1017.7 |
| 20260901200742 | 86 | 0 | 3.0 | 8.0 | 0.00 | 0.00 | 0.00 | 66 | 1017.8 |
| 20260901200237 | 86 | 0 | 3.0 | 8.0 | 0.00 | 0.00 | 0.00 | 65 | 1017.8 |
| 20260901195735 | 86 | 0 | 3.0 | 8.0 | 0.00 | 0.00 | 0.00 | 65 | 1017.8 |
| 20260901195236 | 85 | 236 | 3.0 | 8.0 | 0.00 | 0.00 | 0.00 | 65 | 1017.9 |
| 20260901195002 | 85 | 37 | 2.0 | 5.0 | 0.00 | 0.00 | 0.00 | 65 | 1017.9 |
| 20260901194233 | 85 | 0 | 2.0 | 8.0 | 0.00 | 0.00 | 0.00 | 64 | 1018.1 |
| 20260901193732 | 85 | 222 | 3.0 | 8.0 | 0.00 | 0.00 | 0.00 | 64 | 1018.2 |
| 20260901193227 | 86 | 0 | 3.0 | 8.0 | 0.00 | 0.00 | 0.00 | 64 | 1018.3 |
| 20260901192727 | 86 | 0 | 3.0 | 8.0 | 0.00 | 0.00 | 0.00 | 63 | 1018.2 |
| 20260901192226 | 86 | 269 | 3.0 | 8.0 | 0.00 | 0.00 | 0.00 | 63 | 1018.2 |
| 20260901191955 | 87 | 0 | 2.0 | 7.0 | 0.00 | 0.00 | 0.00 | 62 | 1018.1 |
| 20260901191224 | 87 | 0 | 2.0 | 6.0 | 0.00 | 0.00 | 0.00 | 62 | 1018.3 |
| 20260901190957 | 87 | 0 | 2.0 | 8.0 | 0.00 | 0.00 | 0.00 | 62 | 1018.3 |
| 20260901190218 | 87 | 0 | 3.0 | 9.0 | 0.00 | 0.00 | 0.00 | 62 | 1018.4 |
| 20260901185715 | 87 | 107 | 3.0 | 9.0 | 0.00 | 0.00 | 0.00 | 61 | 1018.4 |
| 20260901185214 | 87 | 0 | 4.0 | 13.0 | 0.00 | 0.00 | 0.00 | 61 | 1018.4 |
| 20260901184712 | 87 | 0 | 4.0 | 13.0 | 0.00 | 0.00 | 0.00 | 63 | 1018.5 |
| 20260901184215 | 86 | 252 | 4.0 | 10.0 | 0.00 | 0.00 | 0.00 | 63 | 1018.5 |
| 20260901183939 | 86 | 0 | 4.0 | 12.0 | 0.00 | 0.00 | 0.00 | 62 | 1018.5 |
| 20260901183204 | 86 | 0 | 4.0 | 12.0 | 0.00 | 0.00 | 0.00 | 62 | 1018.6 |
| 20260901182705 | 87 | 0 | 4.0 | 13.0 | 0.00 | 0.00 | 0.00 | 62 | 1018.7 |
| 20260901182206 | 87 | 0 | 4.0 | 14.0 | 0.00 | 0.00 | 0.00 | 61 | 1018.8 |
| 20260901181706 | 87 | 0 | 4.0 | 14.0 | 0.00 | 0.00 | 0.00 | 60 | 1018.7 |
| 20260901181438 | 87 | 0 | 4.0 | 11.0 | 0.00 | 0.00 | 0.00 | 61 | 1018.9 |
| 20260901180700 | 88 | 0 | 5.0 | 15.0 | 0.00 | 0.00 | 0.00 | 60 | 1018.8 |
| 20260901180159 | 88 | 0 | 4.0 | 15.0 | 0.00 | 0.00 | 0.00 | 59 | 1018.8 |
| 20260901175703 | 89 | 205 | 5.0 | 12.0 | 0.00 | 0.00 | 0.00 | 61 | 1018.9 |
| 20260901175200 | 88 | 0 | 5.0 | 11.0 | 0.00 | 0.00 | 0.00 | 60 | 1018.9 |
| 20260901174700 | 88 | 0 | 4.0 | 12.0 | 0.00 | 0.00 | 0.00 | 60 | 1018.9 |
| 20260901174159 | 88 | 0 | 3.0 | 11.0 | 0.00 | 0.00 | 0.00 | 61 | 1018.9 |
| 20260901173653 | 88 | 263 | 4.0 | 12.0 | 0.00 | 0.00 | 0.00 | 60 | 1018.9 |
| 20260901173154 | 88 | 51 | 4.0 | 12.0 | 0.00 | 0.00 | 0.00 | 60 | 1018.9 |
| 20260901172924 | 89 | 20 | 4.0 | 9.0 | 0.00 | 0.00 | 0.00 | 60 | 1018.9 |
| 20260901172154 | 89 | 0 | 4.0 | 10.0 | 0.00 | 0.00 | 0.00 | 59 | 1018.9 |
| 20260901171654 | 89 | 0 | 5.0 | 21.0 | 0.00 | 0.00 | 0.00 | 59 | 1018.9 |
| 20260901171156 | 89 | 0 | 5.0 | 21.0 | 0.00 | 0.00 | 0.00 | 57 | 1019.0 |
| 20260901170921 | 90 | 0 | 6.0 | 14.0 | 0.00 | 0.00 | 0.00 | 59 | 1019.0 |
| 20260901170150 | 90 | 0 | 5.0 | 16.0 | 0.00 | 0.00 | 0.00 | 59 | 1018.9 |
| 20260901165649 | 90 | 0 | 4.0 | 16.0 | 0.00 | 0.00 | 0.00 | 60 | 1018.8 |
| 20260901165149 | 89 | 0 | 5.0 | 12.0 | 0.00 | 0.00 | 0.00 | 60 | 1018.9 |
| 20260901164648 | 89 | 0 | 4.0 | 14.0 | 0.00 | 0.00 | 0.00 | 60 | 1018.8 |
| 20260901164148 | 89 | 0 | 4.0 | 14.0 | 0.00 | 0.00 | 0.00 | 60 | 1018.8 |
| 20260901163642 | 89 | 0 | 5.0 | 13.0 | 0.00 | 0.00 | 0.00 | 61 | 1018.6 |
| 20260901163142 | 88 | 0 | 5.0 | 13.0 | 0.00 | 0.00 | 0.00 | 61 | 1018.9 |
| 20260901162645 | 89 | 0 | 5.0 | 19.0 | 0.00 | 0.00 | 0.00 | 61 | 1018.7 |
| 20260901162142 | 88 | 0 | 4.0 | 19.0 | 0.00 | 0.00 | 0.00 | 61 | 1018.7 |
| 20260901161642 | 88 | 0 | 4.0 | 10.0 | 0.00 | 0.00 | 0.00 | 63 | 1018.8 |
| 20260901161412 | 88 | 0 | 4.0 | 10.0 | 0.00 | 0.00 | 0.00 | 62 | 1018.7 |
| 20260901160906 | 87 | 0 | 5.0 | 11.0 | 0.00 | 0.00 | 0.00 | 64 | 1018.7 |
| 20260901160134 | 87 | 0 | 5.0 | 11.0 | 0.00 | 0.00 | 0.00 | 64 | 1018.7 |
| 20260901155635 | 87 | 0 | 5.0 | 10.0 | 0.00 | 0.00 | 0.00 | 64 | 1018.7 |
| 20260901155136 | 86 | 0 | 5.0 | 11.0 | 0.00 | 0.00 | 0.00 | 64 | 1018.7 |
| 20260901154635 | 86 | 0 | 6.0 | 13.0 | 0.00 | 0.00 | 0.00 | 65 | 1018.8 |
| 20260901154139 | 86 | 0 | 6.0 | 16.0 | 0.00 | 0.00 | 0.00 | 65 | 1018.7 |
| 20260901153634 | 85 | 0 | 5.0 | 16.0 | 0.00 | 0.00 | 0.00 | 65 | 1018.6 |
| 20260901153133 | 85 | 0 | 5.0 | 11.0 | 0.00 | 0.00 | 0.00 | 64 | 1018.7 |
| 20260901152633 | 85 | 0 | 6.0 | 11.0 | 0.00 | 0.00 | 0.00 | 65 | 1018.7 |
| 20260901152403 | 85 | 0 | 6.0 | 11.0 | 0.00 | 0.00 | 0.00 | 64 | 1018.8 |
| 20260901151630 | 85 | 0 | 5.0 | 11.0 | 0.00 | 0.00 | 0.00 | 65 | 1018.9 |
| 20260901151130 | 84 | 0 | 5.0 | 11.0 | 0.00 | 0.00 | 0.00 | 65 | 1018.9 |
| 20260901150625 | 84 | 0 | 6.0 | 12.0 | 0.00 | 0.00 | 0.00 | 64 | 1018.8 |
| 20260901150126 | 84 | 0 | 6.0 | 12.0 | 0.00 | 0.00 | 0.00 | 64 | 1018.7 |
| 20260901145626 | 83 | 0 | 6.0 | 13.0 | 0.00 | 0.00 | 0.00 | 64 | 1018.8 |
| 20260901145124 | 83 | 0 | 6.0 | 13.0 | 0.00 | 0.00 | 0.00 | 64 | 1018.8 |
| 20260901144623 | 83 | 0 | 6.0 | 12.0 | 0.00 | 0.00 | 0.00 | 64 | 1018.9 |
| 20260901144123 | 82 | 0 | 5.0 | 11.0 | 0.00 | 0.00 | 0.00 | 65 | 1018.9 |
| 20260901143620 | 82 | 0 | 6.0 | 14.0 | 0.00 | 0.00 | 0.00 | 63 | 1018.8 |
| 20260901143121 | 82 | 0 | 6.0 | 14.0 | 0.00 | 0.00 | 0.00 | 63 | 1018.7 |
| 20260901142622 | 81 | 0 | 7.0 | 15.0 | 0.00 | 0.00 | 0.00 | 63 | 1018.7 |
| 20260901142120 | 81 | 0 | 7.0 | 15.0 | 0.00 | 0.00 | 0.00 | 63 | 1018.7 |
| 20260901141617 | 81 | 0 | 7.0 | 15.0 | 0.00 | 0.00 | 0.00 | 63 | 1018.8 |
| 20260901141120 | 80 | 0 | 6.0 | 15.0 | 0.00 | 0.00 | 0.00 | 64 | 1018.8 |
| 20260901140614 | 80 | 0 | 6.0 | 12.0 | 0.00 | 0.00 | 0.00 | 63 | 1018.8 |
| 20260901140116 | 79 | 0 | 6.0 | 13.0 | 0.00 | 0.00 | 0.00 | 64 | 1018.9 |
| 20260901135843 | 78 | 0 | 6.0 | 13.0 | 0.00 | 0.00 | 0.00 | 64 | 1019.0 |
| 20260901135344 | 78 | 0 | 5.0 | 13.0 | 0.00 | 0.00 | 0.00 | 64 | 1019.1 |
| 20260901134612 | 78 | 0 | 5.0 | 11.0 | 0.00 | 0.00 | 0.00 | 65 | 1019.2 |
| 20260901134114 | 77 | 0 | 5.0 | 11.0 | 0.00 | 0.00 | 0.00 | 66 | 1019.1 |
| 20260901133614 | 77 | 0 | 5.0 | 12.0 | 0.00 | 0.01 | 0.00 | 66 | 1019.2 |
| 20260901133114 | 77 | 0 | 5.0 | 12.0 | 0.00 | 0.01 | 0.00 | 65 | 1019.3 |
| 20260901132614 | 77 | 0 | 5.0 | 12.0 | 0.00 | 0.01 | 0.00 | 65 | 1019.3 |
| 20260901132112 | 77 | 0 | 5.0 | 12.0 | 0.00 | 0.01 | 0.00 | 65 | 1019.3 |
| 20260901131613 | 77 | 0 | 4.0 | 10.0 | 0.00 | 0.01 | 0.00 | 65 | 1019.3 |
| 20260901131113 | 77 | 0 | 4.0 | 11.0 | 0.00 | 0.01 | 0.00 | 65 | 1019.5 |
| 20260901130843 | 76 | 0 | 5.0 | 13.0 | 0.00 | 0.01 | 0.00 | 65 | 1019.4 |
| 20260901130110 | 76 | 0 | 6.0 | 13.0 | 0.00 | 0.01 | 0.00 | 65 | 1019.5 |
| 20260901125840 | 76 | 0 | 5.0 | 12.0 | 0.00 | 0.01 | 0.00 | 65 | 1019.6 |
| 20260901125109 | 76 | 0 | 4.0 | 10.0 | 0.00 | 0.01 | 0.00 | 66 | 1019.6 |
| 20260901124609 | 76 | 0 | 4.0 | 11.0 | 0.00 | 0.01 | 0.00 | 66 | 1019.6 |
| 20260901124110 | 76 | 0 | 6.0 | 12.0 | 0.00 | 0.01 | 0.00 | 67 | 1019.6 |
| 20260901123604 | 75 | 0 | 6.0 | 13.0 | 0.00 | 0.01 | 0.00 | 67 | 1019.6 |
| 20260901123104 | 75 | 0 | 5.0 | 13.0 | 0.00 | 0.01 | 0.00 | 68 | 1019.6 |
| 20260901122836 | 75 | 0 | 5.0 | 8.0 | 0.00 | 0.01 | 0.00 | 68 | 1019.7 |
| 20260901122336 | 74 | 0 | 4.0 | 9.0 | 0.00 | 0.01 | 0.00 | 69 | 1019.6 |
| 20260901121606 | 74 | 0 | 4.0 | 9.0 | 0.00 | 0.01 | 0.00 | 69 | 1019.6 |
| 20260901121106 | 74 | 0 | 4.0 | 9.0 | 0.00 | 0.01 | 0.00 | 69 | 1019.5 |
| 20260901120831 | 74 | 0 | 4.0 | 9.0 | 0.00 | 0.01 | 0.00 | 69 | 1019.5 |
| 20260901115601 | 74 | 0 | 4.0 | 9.0 | 0.00 | 0.01 | 0.00 | 70 | 1019.4 |
| 20260901115059 | 73 | 0 | 4.0 | 9.0 | 0.00 | 0.01 | 0.00 | 70 | 1019.4 |
| 20260901114559 | 73 | 0 | 4.0 | 11.0 | 0.00 | 0.01 | 0.00 | 70 | 1019.3 |
| 20260901114058 | 73 | 0 | 4.0 | 11.0 | 0.00 | 0.01 | 0.00 | 70 | 1019.2 |
| 20260901113600 | 73 | 0 | 4.0 | 11.0 | 0.00 | 0.01 | 0.00 | 70 | 1019.2 |
| 20260901113333 | 73 | 0 | 4.0 | 11.0 | 0.00 | 0.01 | 0.00 | 70 | 1019.2 |
| 20260901112558 | 73 | 0 | 4.0 | 9.0 | 0.00 | 0.01 | 0.00 | 70 | 1019.2 |
| 20260901112100 | 73 | 0 | 3.0 | 8.0 | 0.00 | 0.01 | 0.00 | 70 | 1019.2 |
| 20260901111559 | 73 | 0 | 3.0 | 8.0 | 0.00 | 0.01 | 0.00 | 70 | 1019.2 |
| 20260901111053 | 73 | 0 | 4.0 | 8.0 | 0.00 | 0.01 | 0.00 | 70 | 1019.1 |
| 20260901110552 | 73 | 0 | 4.0 | 8.0 | 0.00 | 0.01 | 0.00 | 70 | 1019.0 |
| 20260901110054 | 73 | 0 | 4.0 | 8.0 | 0.00 | 0.01 | 0.00 | 70 | 1019.0 |
| 20260901105827 | 73 | 196 | 3.0 | 8.0 | 0.00 | 0.01 | 0.00 | 70 | 1018.9 |
| 20260901105054 | 73 | 0 | 4.0 | 10.0 | 0.00 | 0.01 | 0.00 | 70 | 1018.9 |
| 20260901104553 | 73 | 0 | 4.0 | 10.0 | 0.00 | 0.01 | 0.00 | 70 | 1018.9 |
| 20260901104053 | 73 | 0 | 4.0 | 10.0 | 0.00 | 0.01 | 0.00 | 70 | 1018.8 |
| 20260901103548 | 73 | 0 | 5.0 | 10.0 | 0.00 | 0.01 | 0.00 | 70 | 1018.7 |
| 20260901103044 | 73 | 0 | 5.0 | 10.0 | 0.00 | 0.01 | 0.00 | 71 | 1018.6 |
| 20260901102544 | 73 | 0 | 5.0 | 9.0 | 0.00 | 0.01 | 0.00 | 71 | 1018.8 |
| 20260901102044 | 73 | 0 | 4.0 | 9.0 | 0.00 | 0.01 | 0.00 | 71 | 1018.7 |